When you browse on this site, cookies collect data to enhance your experience and personalize the content and advertising you see.
Visit our Privacy Policy to learn more. By continuing to use the site, you agree to this use of cookies and data.
  • In Spain
  • List of Countries
  • For 7 days
  • Water Temperature
  • Satellite Maps
  • Weather Map
  • Weather Widgets
  • user-avatar
    Login

    Hourly Weather Karlovac

    Today, 16 June, Sunday

    Time Temperature Precipitation Wind Pressure Humidity
    00:00 +21°C° 0 mm 1 mps 738 mmHg 76%
    01:00 +21°C° 0 mm 1 mps 738 mmHg 73%
    02:00 +20°C° 0 mm 1 mps 738 mmHg 74%
    03:00 +20°C° 0 mm 1 mps 738 mmHg 75%
    04:00 +20°C° 0 mm 1 mps 737 mmHg 76%
    05:00 +22°C° 0 mm 1 mps 738 mmHg 73%
    06:00 +23°C° 0 mm 1 mps 738 mmHg 70%
    07:00 +26°C° 0 mm 1 mps 739 mmHg 68%
    08:00 +27°C° 0 mm 1 mps 739 mmHg 61%
    09:00 +29°C° 0 mm 2 mps 739 mmHg 54%
    10:00 +31°C° 0 mm 2 mps 739 mmHg 46%
    11:00 +32°C° 0 mm 2 mps 739 mmHg 45%
    12:00 +32°C° 0 mm 2 mps 739 mmHg 43%
    13:00 +34°C° 0 mm 2 mps 740 mmHg 42%
    14:00 +33°C° 0.5 mm 3 mps 739 mmHg 53%
    15:00 +30°C° 0.5 mm 3 mps 739 mmHg 65%
    16:00 +29°C° 0.5 mm 3 mps 738 mmHg 77%
    17:00 +26°C° 3.1 mm 2 mps 739 mmHg 82%
    18:00 +24°C° 3.1 mm 2 mps 739 mmHg 88%
    19:00 +21°C° 3.1 mm 1 mps 740 mmHg 93%
    20:00 +20°C° 0.4 mm 2 mps 740 mmHg 94%
    21:00 +20°C° 0.4 mm 2 mps 740 mmHg 96%
    22:00 +19°C° 0.4 mm 2 mps 740 mmHg 97%
    23:00 +20°C° 0 mm 1 mps 741 mmHg 97%

    Tomorrow, 17 June, Monday

    Time Temperature Precipitation Wind Pressure Humidity
    00:00 +20°C° 0 mm 1 mps 741 mmHg 97%
    01:00 +19°C° 0 mm 1 mps 741 mmHg 98%
    02:00 +19°C° 0 mm 1 mps 741 mmHg 97%
    03:00 +18°C° 0 mm 1 mps 741 mmHg 97%
    04:00 +18°C° 0 mm 1 mps 740 mmHg 97%
    05:00 +19°C° 0 mm 1 mps 741 mmHg 96%
    06:00 +19°C° 0 mm 1 mps 741 mmHg 95%
    07:00 +20°C° 0 mm 1 mps 741 mmHg 93%
    08:00 +20°C° 0 mm 2 mps 741 mmHg 86%
    09:00 +21°C° 0 mm 2 mps 741 mmHg 79%
    10:00 +22°C° 0 mm 3 mps 742 mmHg 71%
    11:00 +24°C° 0 mm 2 mps 741 mmHg 71%
    12:00 +24°C° 0 mm 2 mps 741 mmHg 71%
    13:00 +24°C° 0 mm 2 mps 741 mmHg 71%
    14:00 +25°C° 0 mm 2 mps 741 mmHg 69%
    15:00 +25°C° 0 mm 3 mps 741 mmHg 66%
    16:00 +26°C° 0 mm 3 mps 740 mmHg 64%
    17:00 +25°C° 0.5 mm 2 mps 740 mmHg 73%
    18:00 +23°C° 0.5 mm 2 mps 740 mmHg 82%
    19:00 +22°C° 0.5 mm 1 mps 740 mmHg 91%
    20:00 +21°C° 1.5 mm 1 mps 740 mmHg 93%
    21:00 +21°C° 1.5 mm 1 mps 740 mmHg 95%
    22:00 +20°C° 1.5 mm 1 mps 741 mmHg 97%
    23:00 +20°C° 0.1 mm 1 mps 741 mmHg 97%

    Day after tomorrow, 18 June, Tuesday

    Time Temperature Precipitation Wind Pressure Humidity
    00:00 +20°C° 0.1 mm 1 mps 740 mmHg 98%
    01:00 +20°C° 0.1 mm 1 mps 740 mmHg 98%
    02:00 +20°C° 0.1 mm 1 mps 740 mmHg 98%
    03:00 +20°C° 0.1 mm 1 mps 740 mmHg 98%
    04:00 +20°C° 0.1 mm 1 mps 740 mmHg 98%
    05:00 +20°C° 0 mm 1 mps 740 mmHg 97%
    06:00 +18°C° 0 mm 0 mps 741 mmHg 97%
    07:00 +19°C° 0 mm 0 mps 741 mmHg 96%
    08:00 +22°C° 0.1 mm 1 mps 741 mmHg 92%
    09:00 +23°C° 0.1 mm 1 mps 741 mmHg 88%
    10:00 +24°C° 0.1 mm 1 mps 741 mmHg 84%
    11:00 +25°C° 0.1 mm 1 mps 741 mmHg 78%
    12:00 +26°C° 0.1 mm 1 mps 740 mmHg 72%
    13:00 +27°C° 0.1 mm 1 mps 740 mmHg 66%
    14:00 +27°C° 0 mm 1 mps 740 mmHg 66%
    15:00 +27°C° 0 mm 1 mps 739 mmHg 67%
    16:00 +27°C° 0 mm 1 mps 739 mmHg 67%
    17:00 +24°C° 0 mm 0 mps 739 mmHg 74%
    18:00 +23°C° 0 mm 0 mps 739 mmHg 81%
    19:00 +22°C° 0 mm 0 mps 739 mmHg 87%
    20:00 +20°C° 0 mm 0 mps 739 mmHg 90%
    21:00 +19°C° 0 mm 0 mps 739 mmHg 92%
    22:00 +18°C° 0 mm 0 mps 739 mmHg 94%
    23:00 +18°C° 0 mm 0 mps 739 mmHg 94%

    19 June, Wednesday

    Time Temperature Precipitation Wind Pressure Humidity
    00:00 +17°C° 0 mm 0 mps 739 mmHg 94%
    01:00 +17°C° 0 mm 0 mps 739 mmHg 94%
    02:00 +17°C° 0 mm 0 mps 738 mmHg 94%
    03:00 +18°C° 0 mm 1 mps 738 mmHg 94%
    04:00 +18°C° 0 mm 1 mps 738 mmHg 94%
    05:00 +18°C° 0 mm 0 mps 738 mmHg 89%
    06:00 +20°C° 0 mm 0 mps 739 mmHg 84%
    07:00 +22°C° 0 mm 0 mps 739 mmHg 79%
    08:00 +24°C° 0 mm 0 mps 739 mmHg 69%
    09:00 +26°C° 0 mm 0 mps 739 mmHg 60%
    10:00 +30°C° 0 mm 1 mps 739 mmHg 50%
    11:00 +31°C° 0 mm 1 mps 739 mmHg 46%
    12:00 +32°C° 0 mm 1 mps 738 mmHg 43%
    13:00 +32°C° 0 mm 1 mps 738 mmHg 39%
    14:00 +32°C° 0 mm 2 mps 738 mmHg 42%
    15:00 +31°C° 0 mm 2 mps 738 mmHg 46%
    16:00 +30°C° 0 mm 2 mps 737 mmHg 49%
    17:00 +28°C° 0 mm 2 mps 737 mmHg 58%
    18:00 +26°C° 0 mm 2 mps 737 mmHg 66%
    19:00 +25°C° 0 mm 2 mps 737 mmHg 74%
    20:00 +23°C° 0 mm 2 mps 737 mmHg 78%
    21:00 +21°C° 0 mm 2 mps 738 mmHg 82%
    22:00 +19°C° 0 mm 2 mps 738 mmHg 87%
    23:00 +20°C° 0 mm 1 mps 738 mmHg 88%

    20 June, Thursday

    Time Temperature Precipitation Wind Pressure Humidity
    00:00 +19°C° 0 mm 1 mps 737 mmHg 89%
    01:00 +19°C° 0 mm 1 mps 737 mmHg 91%
    02:00 +18°C° 0 mm 1 mps 737 mmHg 91%
    03:00 +18°C° 0 mm 1 mps 737 mmHg 91%
    04:00 +18°C° 0 mm 1 mps 737 mmHg 92%
    05:00 +20°C° 0 mm 1 mps 738 mmHg 85%
    06:00 +20°C° 0 mm 0 mps 738 mmHg 79%
    07:00 +22°C° 0 mm 0 mps 738 mmHg 72%
    08:00 +24°C° 0 mm 0 mps 738 mmHg 65%
    09:00 +27°C° 0 mm 0 mps 739 mmHg 57%
    10:00 +29°C° 0 mm 0 mps 739 mmHg 50%
    11:00 +31°C° 0.1 mm 1 mps 739 mmHg 49%
    12:00 +32°C° 0.1 mm 1 mps 738 mmHg 47%
    13:00 +32°C° 0.1 mm 1 mps 738 mmHg 46%
    14:00 +32°C° 0 mm 1 mps 738 mmHg 46%
    15:00 +31°C° 0 mm 2 mps 738 mmHg 46%
    16:00 +31°C° 0 mm 2 mps 737 mmHg 47%
    17:00 +29°C° 0 mm 2 mps 737 mmHg 56%
    18:00 +27°C° 0 mm 2 mps 737 mmHg 66%
    19:00 +25°C° 0 mm 2 mps 737 mmHg 75%
    20:00 +24°C° 0 mm 2 mps 737 mmHg 77%
    21:00 +21°C° 0 mm 2 mps 737 mmHg 79%
    22:00 +19°C° 0 mm 2 mps 737 mmHg 81%
    23:00 +19°C° 0 mm 2 mps 737 mmHg 79%

    21 June, Friday

    Time Temperature Precipitation Wind Pressure Humidity
    00:00 +18°C° 0 mm 2 mps 737 mmHg 77%
    01:00 +18°C° 0 mm 2 mps 737 mmHg 74%
    02:00 +19°C° 0 mm 1 mps 737 mmHg 75%
    03:00 +18°C° 0 mm 1 mps 738 mmHg 76%
    04:00 +18°C° 0 mm 1 mps 738 mmHg 77%
    05:00 +20°C° 0 mm 1 mps 738 mmHg 73%
    06:00 +22°C° 0 mm 1 mps 738 mmHg 69%
    07:00 +24°C° 0 mm 1 mps 739 mmHg 65%
    08:00 +26°C° 0 mm 1 mps 739 mmHg 57%
    09:00 +28°C° 0 mm 1 mps 739 mmHg 49%
    10:00 +31°C° 0 mm 1 mps 740 mmHg 41%
    11:00 +31°C° 0 mm 1 mps 740 mmHg 39%
    12:00 +32°C° 0 mm 2 mps 740 mmHg 36%
    13:00 +32°C° 0 mm 2 mps 739 mmHg 34%
    14:00 +32°C° 0 mm 2 mps 739 mmHg 35%
    15:00 +32°C° 0 mm 2 mps 739 mmHg 36%
    16:00 +31°C° 0 mm 2 mps 739 mmHg 36%
    17:00 +29°C° 0 mm 2 mps 739 mmHg 48%
    18:00 +26°C° 0 mm 1 mps 739 mmHg 59%
    19:00 +24°C° 0 mm 1 mps 739 mmHg 70%
    20:00 +23°C° 0 mm 1 mps 739 mmHg 70%
    21:00 +21°C° 0 mm 1 mps 739 mmHg 70%
    22:00 +20°C° 0 mm 1 mps 740 mmHg 70%
    23:00 +20°C° 0 mm 1 mps 740 mmHg 69%
    Show more